Tucson, AZ

1:08 AM MST on August 24, 2019 (GMT -0700)
Tucson International

Weather History for KTUS - May, 2019

Change the Weather History Date:

Thursday, May 16, 2019

  Actual Average Record
Temperature  
Mean Temperature 78 °F 76 °F  
Max Temperature 90 °F 92 °F 106 °F (1934)
Min Temperature 65 °F 61 °F 44 °F (1911)
Degree Days  
Heating Degree Days 0 0  
Month to date heating degree days 0 3  
Since 1 July heating degree days 1408 1509  
Cooling Degree Days 13 11  
Month to date cooling degree days 120 145  
Year to date cooling degree days 300 299  
Growing Degree Days 28 (Base 50)    
Moisture  
Dew Point 34 °F    
Average Humidity 22    
Maximum Humidity 40    
Minimum Humidity 7    
Precipitation  
Precipitation 0.00 in 0.00 in 0.14 in (2007)
Month to date precipitation 1.21 0.11  
Year to date precipitation 5.02 2.95  
Sea Level Pressure  
Sea Level Pressure 29.76 in    
Wind  
Wind Speed 12 mph (SSW)    
Max Wind Speed 29 mph    
Max Gust Speed 37 mph    
Visibility 10 miles    
Events      
T = Trace of Precipitation, MM = Missing Value Source: NWS Daily Summary

Daily Weather History Graph

Daily Weather History Graph

Search for Another Location

Airport or City:

Astronomy

May. 16, 2019 Rise Set
Actual Time 5:25 AM MST 7:15 PM MST
Civil Twilight 4:58 AM MST 7:42 PM MST
Nautical Twilight 4:26 AM MST 8:14 PM MST
Astronomical Twilight 3:51 AM MST 8:49 PM MST
Moon 5:09 PM MST (5/16) 4:11 AM MST (5/16)
Length of Visible Light 14h 43m
Length of Day
13h 49m
Waxing Gibbous, 95% of the Moon is Illuminated
May 16
Waxing Gibbous
May 18
Full
May 26
Last Quarter
Jun 3
New
Jun 9
First Quarter

Hourly Weather History & Observations

Time (MST) Temp. Dew Point Humidity Pressure Visibility Wind Dir Wind Speed Gust Speed Precip Events Conditions
12:53 AM 73.0 °F 36.0 °F 26% 29.77 in 10.0 mi SE 8.1 mph - N/A   Clear
1:53 AM 70.0 °F 37.9 °F 31% 29.76 in 10.0 mi SE 8.1 mph - N/A   Clear
2:13 AM 70.0 °F 37.0 °F 30% 29.90 in 10.0 mi SE 11.5 mph - N/A   Clear
2:53 AM 70.0 °F 37.9 °F 31% 29.75 in 10.0 mi SE 10.4 mph - N/A   Clear
3:53 AM 64.9 °F 39.9 °F 40% 29.76 in 10.0 mi SE 10.4 mph - N/A   Clear
4:53 AM 66.9 °F 41.0 °F 39% 29.75 in 10.0 mi SE 4.6 mph - N/A   Clear
5:53 AM 66.9 °F 41.0 °F 39% 29.77 in 10.0 mi SSE 8.1 mph - N/A   Clear
6:53 AM 71.1 °F 39.0 °F 31% 29.77 in 10.0 mi South 5.8 mph - N/A   Clear
7:53 AM 69.1 °F 42.1 °F 38% 29.81 in 10.0 mi Variable 6.9 mph - N/A   Clear
8:53 AM 73.9 °F 39.0 °F 28% 29.80 in 10.0 mi Calm Calm - N/A   Clear
9:53 AM 78.1 °F 37.0 °F 23% 29.80 in 10.0 mi North - - N/A   Clear
9:55 AM 78.1 °F 37.0 °F 23% 29.92 in 10.0 mi Calm Calm - N/A   Clear
10:25 AM 82.0 °F 33.1 °F 17% 29.92 in 10.0 mi SSW 17.3 mph 26.5 mph N/A   Clear
10:53 AM 84.0 °F 32.0 °F 15% 29.78 in 10.0 mi SSW 16.1 mph 28.8 mph N/A   Clear
11:53 AM 86.0 °F 30.9 °F 14% 29.76 in 10.0 mi SSW 13.8 mph 25.3 mph N/A   Clear
12:53 PM 89.1 °F 28.0 °F 11% 29.73 in 10.0 mi SW 21.9 mph 31.1 mph N/A   Clear
1:53 PM 89.1 °F 30.0 °F 12% 29.72 in 10.0 mi SSW 20.7 mph 33.4 mph N/A   Clear
2:53 PM 90.0 °F 33.1 °F 13% 29.70 in 10.0 mi SW 15.0 mph 27.6 mph N/A   Clear
3:53 PM 90.0 °F 35.1 °F 14% 29.68 in 10.0 mi SW 13.8 mph 33.4 mph N/A   Clear
4:53 PM 88.0 °F 33.1 °F 14% 29.67 in 10.0 mi SSW 20.7 mph 29.9 mph N/A   Clear
5:53 PM 86.0 °F 32.0 °F 14% 29.67 in 10.0 mi WSW 17.3 mph 28.8 mph N/A   Clear
6:53 PM 81.0 °F 34.0 °F 18% 29.69 in 10.0 mi WSW 15.0 mph 26.5 mph N/A   Clear
7:53 PM 78.1 °F 28.9 °F 17% 29.73 in 10.0 mi WSW 17.3 mph 27.6 mph N/A   Clear
8:53 PM 75.0 °F 28.0 °F 18% 29.75 in 10.0 mi WSW 5.8 mph - N/A   Clear
9:53 PM 72.0 °F 28.0 °F 20% 29.77 in 10.0 mi SW 8.1 mph - N/A   Clear
10:53 PM 71.1 °F 28.0 °F 20% 29.77 in 10.0 mi SSW 10.4 mph - N/A   Clear
11:53 PM 66.9 °F 36.0 °F 32% 29.77 in 10.0 mi SSW 6.9 mph - N/A   Clear